Home > Time Zones > World Clock > Weather > Cuba > Havana > Past weeks

Flag for Cuba Weather past 2 weeks in Havana, Cuba

Now
77 °F

Passing clouds.


Feels Like: 78 °F
Forecast: 78 / 90 °F
Wind: No wind

Location: Aeropuerto Jose Marti - Rancho-Boyeros - Habana

Current Time: Jul 31, 2014 at 12:28:48 AM

Latest Report: Jul 30, 2014 at 11:55 PM


Visibility: N/A

Pressure: 30.04 "Hg

Humidity: 83%

Dew point: 72 °F

Location of HavanaLocation

Historic Weather in Havana — Graph

°F

Havana temperature yesterday

Maximum temperature yesterday: 90 °F (at 12:55 PM)
Minimum temperature yesterday: 72 °F (at 4:55 AM)
Average temperature yesterday: 81 °F

Past Weeks' High & Low Weather Summary

 TemperatureHumidityPressure
High93 °F (Jul 16, 1:55 PM)94% (Jul 16, 2:55 AM)30.12 "Hg (Jul 16, 2:55 AM)
Low70 °F (Jul 16, 6:55 AM)39% (Jul 19, 2:55 PM)29.98 "Hg (Jul 16, 3:55 PM)
Average81 °F74%30.05 "Hg
* Reported Jul 15 10:55 PM — Jul 30 10:55 PM, Havana, Weather by CustomWeather, © 2014

Note: Actual official high and low records may vary slightly from our data, if they occured in-between our weather recording intervals... More about our weather records

Advertising

Havana weather history for previous 24 hours

 ConditionsComfort  
Time TempWeatherWind HumidityBarometerVisibility
10:55 PM
Jul 30
77 °FPassing clouds.3 mph83%30.04 "HgN/A
9:55 PM82 °FPassing clouds.6 mph70%30.01 "HgN/A
8:55 PM84 °FPassing clouds.7 mph66%30.01 "HgN/A
7:55 PM84 °FPassing clouds.8 mph66%30.01 "HgN/A
6:55 PM88 °FPassing clouds.8 mph55%29.98 "HgN/A
5:55 PM88 °FScattered clouds.8 mph55%29.98 "HgN/A
4:55 PM88 °FPartly sunny.9 mph59%29.98 "HgN/A
3:55 PM90 °FPartly sunny.12 mph55%30.01 "HgN/A
2:55 PM90 °FPartly sunny.12 mph55%30.01 "HgN/A
1:55 PM88 °FPartly sunny.10 mph59%30.04 "HgN/A
12:55 PM90 °FPartly sunny.9 mph59%30.04 "HgN/A
11:55 AM88 °FPartly sunny.7 mph59%30.04 "HgN/A
10:55 AM84 °FScattered clouds.3 mph70%30.07 "HgN/A
9:55 AM84 °FPassing clouds.1 mph70%30.04 "HgN/A
8:55 AM81 °FPassing clouds.2 mph79%30.04 "HgN/A
7:55 AM73 °FPassing clouds.2 mph89%30.04 "HgN/A
6:55 AM72 °FPassing clouds.No wind88%30.01 "Hg6 mi
5:55 AM72 °FClear.6 mph88%30.01 "Hg6 mi
4:55 AM72 °FClear.No wind88%30.01 "Hg6 mi
3:55 AM73 °FClear.2 mph89%30.01 "Hg6 mi
2:55 AM73 °FClear.2 mph89%30.04 "Hg6 mi
1:55 AM73 °FClear.3 mph89%30.04 "Hg6 mi
12:55 AM75 °FClear.5 mph83%30.07 "Hg6 mi
Weather by CustomWeather, © 2014

See weather overviewHow to use our weather pages